Regional Weather Roundup
Issued by NWS

Home | Current Version | Previous Version | Graphics & Text | Print | Product List | Glossary On
Versions: 1 2 3 4 5 6 7 8 9 10 11 12 13 14 15 16 17 18 19 20 21 22 23 24 25 26 27 28 29 30 31 32 33 34 35 36 37 38 39 40 41 42 43 44 45 46 47 48 49 50
000
ASUS43 KLSX 250459
RWRMO

WEATHER SUMMARY FOR MISSOURI
NATIONAL WEATHER SERVICE SPRINGFIELD MO
1100 PM CST SAT JAN 24 2015

NOTE: "FAIR" INDICATES FEW OR NO CLOUDS BELOW 12,000 FEET WITH NO
       SIGNIFICANT WEATHER AND/OR OBSTRUCTIONS TO VISIBILITY.
       CURRENT SKY AND/OR WEATHER CONDITIONS ARE NOT AVAILABLE FOR
       CHILLICOTHE AND FARMINGTON.

MOZ001>031-035>038-043-044-053-054-250600-
...NORTHERN AND WESTERN MISSOURI...

CITY           SKY/WX    TMP DP  RH WIND       PRES   REMARKS
KANSAS CTY INT LGT RAIN  45  42  89 SW7       29.67F
KANSAS C DTWN  LGT RAIN  48  42  80 SW6       29.69F
LEE`S SUMMIT   LGT RAIN  46  43  89 SW7       29.70F
ST JOSEPH      LGT RAIN  42  40  92 SW6       29.66F
CHILLICOTHE      N/A     50  33  52 W7        29.65F
KIRKSVILLE     CLOUDY    46  30  53 SW7       29.62F

$$
MOZ066>068-077>081-088>096-101>105-250600-
...SOUTHWEST MISSOURI...

CITY           SKY/WX    TMP DP  RH WIND       PRES   REMARKS
SPRINGFIELD    CLOUDY    50  32  50 SW16      29.77F
JOPLIN         CLOUDY    53  31  42 SW20G26   29.78F

$$
MOZ032>034-039>042-045>050-055>058-069>072-250600-
...CENTRAL MISSOURI...

CITY           SKY/WX    TMP DP  RH WIND       PRES   REMARKS
COLUMBIA       CLOUDY    46  34  62 SW10      29.67F
JEFFERSON CITY CLOUDY    52  32  46 SW9       29.69F
ROLLA          CLOUDY    48  31  51 SW14      29.70F
SEDALIA        CLOUDY    52  32  46 W17G26    29.70S
WHITEMAN AFB   LGT RAIN  50  41  71 W18G29    29.70R
OSAGE BEACH    CLOUDY    54  30  40 SW10G20   29.71F

$$
MOZ051-052-059>065-250600-
...EAST CENTRAL MISSOURI...

CITY           SKY/WX    TMP DP  RH WIND       PRES   REMARKS
ST LOUIS INTL  CLOUDY    51  31  46 SW12      29.70F
SPIRIT OF STL  CLOUDY    51  31  46 SW12      29.69F
ST CHARLES     CLOUDY    44  33  65 CALM      29.69F

$$
MOZ072>076-082>087-097>100-106>115-250600-
...SOUTH CENTRAL AND SOUTHEAST MISSOURI...

CITY           SKY/WX    TMP DP  RH WIND       PRES   REMARKS
CAPE GIRARDEAU MOCLDY    41  33  73 S7        29.81F
FARMINGTON     CLOUDY    48  28  46 MISG      29.77F
POPLAR BLUFF   MOCLDY    40  33  76 SW8       29.81F
WEST PLAINS    MOCLDY    46  30  53 SW9       29.81F

$$



USA.gov is the U.S. government's official web portal to all federal, state and local government web resources and services.